#timestamp,LO_Frequency,Hit,Temp,Hum 
1479715215.8,286046957.3,N,0.0,0.0
1479715235.6,286046957.2,N,0.0,0.0
1479715255.4,286046956.8,N,0.0,0.0
1479715275.3,286046958.0,N,0.0,0.0
1479715295.1,286046955.1,N,0.0,0.0
1479715315.9,286046956.2,N,0.0,0.0
1479715335.7,286046955.5,N,0.0,0.0
1479715355.5,286046956.2,N,0.0,0.0
1479715375.4,286046955.8,N,0.0,0.0
1479715395.2,286046956.3,N,0.0,0.0
1479715415.0,286046955.8,N,0.0,0.0
1479715416.0,286046955.8,N,0.0,0.0
1479715435.8,286046953.4,N,0.0,0.0
1479715455.6,286046953.7,N,0.0,0.0
1479715475.5,286046954.1,N,0.0,0.0
1479715495.3,286046954.3,N,0.0,0.0
1479715515.1,286046952.3,N,0.0,0.0
1479715535.9,286046952.5,N,0.0,0.0
1479715555.7,286046952.5,N,0.0,0.0
1479715575.6,286046952.3,N,0.0,0.0
1479715595.4,286046952.7,N,0.0,0.0
1479715615.2,286046953.1,N,0.0,0.0
1479715635.1,286046950.7,N,0.0,0.0
1479715636.0,286046950.7,N,0.0,0.0
1479715655.8,286046950.6,N,0.0,0.0
1479715675.6,286046950.9,N,0.0,0.0
1479715695.5,286046950.5,N,0.0,0.0
1479715715.3,286046950.1,N,0.0,0.0
1479715735.2,286046950.7,N,0.0,0.0
1479715755.9,286046948.5,N,0.0,0.0
1479715775.7,286046948.5,N,0.0,0.0
1479715795.6,286046951.4,N,0.0,0.0
1479715815.4,286046950.7,N,0.0,0.0
1479715835.2,286046951.4,N,0.0,0.0
1479715855.1,286046949.0,N,0.0,0.0
1479715856.0,286046949.0,N,0.0,0.0
1479715875.8,286046948.5,N,0.0,0.0
1479715895.7,286046950.4,N,0.0,0.0
1479715915.5,286046950.8,N,0.0,0.0
1479715935.3,286046951.2,N,0.0,0.0
1479715955.2,286046951.6,N,0.0,0.0
1479715975.0,286046951.2,N,0.0,0.0
1479715975.9,286046951.2,N,0.0,0.0
1479715995.8,286046948.5,N,0.0,0.0
1479716015.6,286046949.0,N,0.0,0.0
1479716035.4,286046948.5,N,0.0,0.0
1479716055.3,286046951.3,N,0.0,0.0
1479716075.1,286046951.5,N,0.0,0.0
1479716095.8,286046949.0,N,0.0,0.0
1479716115.7,286046948.7,N,0.0,0.0
1479716135.5,286046948.9,N,0.0,0.0
1479716155.4,286046949.9,N,0.0,0.0
1479716175.2,286046949.6,N,0.0,0.0
1479716195.0,286046949.4,N,0.0,0.0
1479716195.9,286046949.4,N,0.0,0.0
1479716215.8,286046948.9,N,0.0,0.0
1479716235.6,286046949.7,N,0.0,0.0
1479716255.5,286046949.1,N,0.0,0.0
1479716275.3,286046951.3,N,0.0,0.0
1479716295.1,286046951.9,N,0.0,0.0
1479716315.9,286046952.3,N,0.0,0.0
1479716335.7,286046952.3,N,0.0,0.0
1479716355.5,286046952.6,N,0.0,0.0
1479716375.4,286046952.0,N,0.0,0.0
1479716395.2,286046951.9,N,0.0,0.0
1479716415.1,286046951.8,N,0.0,0.0
1479716416.0,286046951.8,N,0.0,0.0
1479716435.8,286046954.5,N,0.0,0.0
1479716455.6,286046954.2,N,0.0,0.0
1479716475.5,286046952.2,N,0.0,0.0
1479716495.3,286046952.1,N,0.0,0.0
1479716515.1,286046954.4,N,0.0,0.0
1479716535.9,286046953.6,N,0.0,0.0
1479716555.7,286046953.6,N,0.0,0.0
1479716575.6,286046953.7,N,0.0,0.0
1479716595.4,286046956.3,N,0.0,0.0
1479716615.2,286046955.2,N,0.0,0.0
1479716635.1,286046955.6,N,0.0,0.0
1479716636.0,286046955.6,N,0.0,0.0
1479716655.8,286046955.1,N,0.0,0.0
1479716675.7,286046955.4,N,0.0,0.0
1479716695.5,286046955.0,N,0.0,0.0
1479716715.3,286046955.2,N,0.0,0.0
1479716735.2,286046957.9,N,0.0,0.0
1479716755.9,286046957.8,N,0.0,0.0
1479716775.7,286046957.2,N,0.0,0.0
1479716795.6,286046957.7,N,0.0,0.0
1479716815.4,286046957.1,N,0.0,0.0
1479716835.3,286046957.0,N,0.0,0.0
1479716855.1,286046958.6,N,0.0,0.0
1479716856.0,286046958.6,N,0.0,0.0
1479716875.8,286046958.9,N,0.0,0.0
1479716895.7,286046959.1,N,0.0,0.0
1479716915.5,286046959.6,N,0.0,0.0
1479716935.3,286046958.8,N,0.0,0.0
1479716955.2,286046959.4,N,0.0,0.0
1479716975.0,286046958.6,N,0.0,0.0
1479716975.9,286046958.6,N,0.0,0.0
1479716995.8,286046961.2,N,0.0,0.0
1479717015.6,286046961.0,N,0.0,0.0
1479717035.4,286046958.1,N,0.0,0.0
1479717055.3,286046961.2,N,0.0,0.0
1479717075.1,286046960.2,N,0.0,0.0
1479717095.9,286046961.9,N,0.0,0.0
1479717115.7,286046962.6,N,0.0,0.0
1479717135.5,286046962.5,N,0.0,0.0
1479717155.4,286046962.5,N,0.0,0.0
1479717175.2,286046961.8,N,0.0,0.0
1479717195.0,286046962.2,N,0.0,0.0
1479717195.9,286046962.2,N,0.0,0.0
1479717215.8,286046961.8,N,0.0,0.0
1479717235.6,286046961.9,N,0.0,0.0
1479717255.5,286046964.0,N,0.0,0.0
1479717275.3,286046961.6,N,0.0,0.0
1479717295.1,286046962.0,N,0.0,0.0
1479717315.9,286046962.5,N,0.0,0.0
1479717335.7,286046961.4,N,0.0,0.0
1479717355.5,286046962.1,N,0.0,0.0
1479717375.4,286046961.9,N,0.0,0.0
1479717395.2,286046962.0,N,0.0,0.0
1479717415.1,286046961.9,N,0.0,0.0
1479717416.0,286046961.9,N,0.0,0.0
1479717435.8,286046961.9,N,0.0,0.0
1479717455.6,286046961.9,N,0.0,0.0
1479717475.5,286046961.6,N,0.0,0.0
1479717495.3,286046963.9,N,0.0,0.0
1479717515.2,286046961.4,N,0.0,0.0
1479717535.9,286046961.4,N,0.0,0.0
1479717555.7,286046964.4,N,0.0,0.0
1479717575.6,286046964.0,N,0.0,0.0
1479717595.4,286046964.4,N,0.0,0.0
1479717615.2,286046963.9,N,0.0,0.0
1479717635.1,286046964.1,N,0.0,0.0
1479717636.0,286046964.1,N,0.0,0.0
1479717655.8,286046966.0,N,0.0,0.0
1479717675.7,286046965.5,N,0.0,0.0
1479717695.5,286046966.0,N,0.0,0.0
1479717715.3,286046965.4,N,0.0,0.0
1479717735.2,286046964.7,N,0.0,0.0
1479717755.9,286046964.8,N,0.0,0.0
1479717775.7,286046964.8,N,0.0,0.0
1479717795.6,286046967.4,N,0.0,0.0
1479717815.4,286046966.2,N,0.0,0.0
1479717835.3,286046964.6,N,0.0,0.0
1479717855.1,286046964.5,N,0.0,0.0
1479717856.0,286046964.5,N,0.0,0.0
1479717875.8,286046967.2,N,0.0,0.0
1479717895.7,286046967.3,N,0.0,0.0
1479717915.5,286046967.4,N,0.0,0.0
1479717935.3,286046964.5,N,0.0,0.0
1479717955.2,286046966.8,N,0.0,0.0
1479717975.0,286046968.7,N,0.0,0.0
1479717975.9,286046968.7,N,0.0,0.0
1479717995.8,286046966.2,N,0.0,0.0
1479718015.6,286046968.8,N,0.0,0.0
1479718035.4,286046967.8,N,0.0,0.0
1479718055.3,286046970.8,N,0.0,0.0
1479718075.1,286046968.8,N,0.0,0.0
1479718095.9,286046968.0,N,0.0,0.0
1479718115.7,286046968.3,N,0.0,0.0
1479718135.5,286046970.6,N,0.0,0.0
1479718155.4,286046970.7,N,0.0,0.0
1479718175.2,286046967.7,N,0.0,0.0
1479718195.0,286046968.8,N,0.0,0.0
1479718195.9,286046968.8,N,0.0,0.0
1479718215.8,286046969.2,N,0.0,0.0
1479718235.6,286046969.0,N,0.0,0.0
1479718255.5,286046967.9,N,0.0,0.0
1479718275.3,286046966.1,N,0.0,0.0
1479718295.1,286046966.6,N,0.0,0.0
1479718315.9,286046966.2,N,0.0,0.0
1479718335.7,286046966.5,N,0.0,0.0
1479718355.5,286046966.7,N,0.0,0.0
1479718375.4,286046968.9,N,0.0,0.0
1479718395.2,286046967.7,N,0.0,0.0
1479718415.1,286046968.6,N,0.0,0.0
1479718416.0,286046968.6,N,0.0,0.0
1479718435.8,286046970.0,N,0.0,0.0
1479718455.6,286046970.4,N,0.0,0.0
1479718475.5,286046968.1,N,0.0,0.0
1479718495.3,286046967.9,N,0.0,0.0
1479718515.1,286046969.5,N,0.0,0.0
1479718535.9,286046973.6,N,0.0,0.0
1479718555.7,286046970.9,N,0.0,0.0
1479718575.6,286046973.1,N,0.0,0.0
1479718595.4,286046972.5,N,0.0,0.0
1479718615.2,286046972.8,N,0.0,0.0
1479718635.1,286046972.8,N,0.0,0.0
1479718636.0,286046972.8,N,0.0,0.0
1479718655.8,286046974.0,N,0.0,0.0
1479718675.6,286046975.2,N,0.0,0.0
1479718695.5,286046975.2,N,0.0,0.0
1479718715.3,286046973.4,N,0.0,0.0
1479718735.2,286046972.7,N,0.0,0.0
1479718755.9,286046975.4,N,0.0,0.0
1479718775.7,286046977.2,N,0.0,0.0
1479718795.6,286046975.2,N,0.0,0.0
